Regional Weather Roundup
Issued by NWS

Home | Current Version | Previous Version | Graphics & Text | Print | Product List | Glossary On
Versions: 1 2 3 4 5 6 7 8 9 10 11 12 13 14 15 16 17 18 19 20 21 22 23 24 25 26 27 28 29 30 31 32 33 34 35 36 37 38 39 40 41 42 43 44 45 46 47 48 49 50
000
ASUS45 KCYS 280110
RWRWY

WYOMING REGIONAL WEATHER ROUNDUP
NATIONAL WEATHER SERVICE CHEYENNE WY
700 PM MDT THU JUL 27 2017

NOTE:  "FAIR" INDICATES FEW OR NO CLOUDS BELOW 12,000 FEET
WITH NO SIGNIFICANT WEATHER AND/OR OBSTRUCTIONS TO VISIBILITY.

WYZ001-280200-
YELLOWSTONE NATIONAL PARK

CITY           SKY/WX    TMP DP  RH WIND       PRES   REMARKS
LK YELLOWSTONE   N/A     63  44  50 VRB3      30.36S
W YELLOWSTONE  NOT AVBL

$$
WYZ002>013-054>058-071-098>099-280200-
NORTHERN WYOMING

CITY           SKY/WX    TMP DP  RH WIND       PRES   REMARKS
JACKSON        FAIR      72  48  42 VRB6      30.24F
CODY           FAIR      79  46  31 N8        30.09R
GREYBULL       FAIR      89  45  21 N12       29.97F
WORLAND        FAIR      86  44  23 SW3       29.98F
SHERIDAN       CLOUDY    68  57  68 N21G31    30.03R THUNDER
BUFFALO        FAIR      84  51  31 N8        30.06S
GILLETTE       FAIR      76  60  57 SE20      30.03S
HULETT         FAIR      72  59  64 S5        30.05F
NEWCASTLE      FAIR      73  52  46 NE7       30.09R

$$
WYZ014>020-022>026-101>103-280200-
CENTRAL WYOMING

CITY           SKY/WX    TMP DP  RH WIND       PRES   REMARKS
BIG PINEY      FAIR      74  46  36 NW16      30.26F
PINEDALE       FAIR      70  46  43 NW8       30.29S
DUBOIS         FAIR      70  45  40 W12       30.25F
LANDER         LGT RAIN  68  49  50 NW9G28    30.12R
RIVERTON       HVY RAIN  65  56  72 W28G46    30.15R
CASPER         PTSUNNY   84  40  21 S16G22    30.07R
DOUGLAS        FAIR      88  48  25 W12       30.02F

$$
WYZ021-027>030-104>119-280200-
SOUTHERN WYOMING

CITY           SKY/WX    TMP DP  RH WIND       PRES   REMARKS
EVANSTON       FAIR      77  35  21 W14       30.28F
KEMMERER         N/A     70  43  37 NW28G37   30.29S
FORT BRIDGER   FAIR      81  34  18 W18G28    30.29S
ROCK SPRINGS   FAIR      83  33  16 W21G28    30.20S
RAWLINS        FAIR      82  38  20 W15       30.19F
SARATOGA       FAIR      79  43  27 W8        30.23F
LARAMIE        FAIR      77  47  34 SW10      30.23S
CHEYENNE       FAIR      79  55  43 S9        30.16F
TORRINGTON     FAIR      79  64  60 E10       30.00R
PINE BLUFFS    FAIR      84  50  30 SW10      30.08F

$$



USA.gov is the U.S. government's official web portal to all federal, state and local government web resources and services.